Temp
1 2 2 2 2 2 2 2 2 3 4 4 4 5 5 5 6 6 6 6 7 7 6 6 6 5 5 5 5 4 5 4 5 6 5 5 4 4 4 4 4 4 4 4
1 2 2 2 2 2 3 3 2 3 4 3 4 4 4 4 4 5 5 5 5 5 6 5 5 4 5 5 5 5 5 4 5 5 4 4 4 4 4 3 2 1 2 3
1 1 2 2 2 3 3 2 2 3 3 3 4 4 4 4 4 4 4 4 4 5 5 5 4 4 5 5 5 5 5 4 4 5 5 4 4 4 4 4 3 3 2 2
1 1 2 2 2 2 2 3 3 3 3 3 4 4 5 4 4 4 4 4 4 5 4 4 4 3 5 4 5 5 4 3 3 3 3 3 3 3 3 3 3 3 3 3
1 1 1 2 2 2 2 2 2 3 3 3 4 4 5 5 5 4 4 4 4 4 4 4 4 3 3 3 4 3 3 2 3 4 3 2 3 2 2 3 3 3 2 2
1 1 1 2 2 2 2 2 2 3 4 3 3 3 4 5 4 4 4 4 4 4 3 3 4 3 3 2 2 1 2 2 2 2 2 2 3 2 2 2 2 2 1 1
1 1 1 1 1 2 2 2 2 3 3 3 3 3 4 4 3 3 3 3 3 3 4 4 4 4 4 3 3 2 2 2 1 2 1 1 3 2 1 1 1 1 0 0
1 1 1 1 1 2 2 2 2 3 3 3 3 3 3 3 3 2 2 3 3 3 3 3 3 3 3 2 2 2 1 2 1 0 -1 0 1 1 0 0 -0 -1 -1 -1
1 1 1 1 1 2 2 2 2 3 3 2 2 2 2 2 2 2 3 3 3 3 3 3 3 2 2 1 1 2 1 1 0 -2 -3 -1 1 0 -1 -1 -1 -2 -1 -2
1 1 1 1 1 1 2 2 2 2 2 3 2 2 2 1 2 2 2 2 2 2 2 2 2 2 2 2 1 2 1 0 -1 -3 -3 -2 -1 -1 -1 -2 -2 -2 -2 -2
0 1 1 1 1 1 1 2 2 2 2 2 2 2 1 1 1 2 2 2 2 2 2 2 2 2 1 1 1 1 1 -0 -1 -3 -3 -3 -2 -2 -2 -2 -2 -3 -3 -4
0 0 1 1 1 1 1 1 1 2 2 2 2 2 2 2 2 1 2 1 2 1 2 2 1 1 1 1 1 1 1 0 -0 -1 -0 -1 -2 -3 -3 -3 -3 -3 -4 -4
-0 0 0 1 1 1 1 1 1 1 1 1 1 2 2 2 1 1 1 1 1 1 1 2 1 1 1 1 1 1 0 0 -0 -1 -1 -2 -2 -2 -2 -3 -3 -4 -4 -5
-0 -0 0 0 1 1 1 1 1 1 1 1 1 1 1 1 1 1 1 1 1 1 1 0 -0 -0 -0 -0 -0 -1 -0 -1 -1 -1 -1 -2 -2 -3 -3 -4 -4 -4 -5 -6
-0 -0 -0 -0 0 0 0 1 0 0 0 1 1 1 1 1 1 1 1 1 1 0 0 -0 -0 -1 -1 -1 -2 -1 1 -0 -1 -2 -2 -2 -3 -3 -4 -4 -4 -5 -6 -7
-1 -1 -0 -0 -0 -0 -0 -0 0 0 0 0 0 0 1 0 0 0 0 -0 0 0 0 -0 -1 -1 -2 -2 -2 0 -1 -2 -2 -2 -2 -3 -4 -4 -4 -5 -6 -6 -7 -8
-1 -1 -1 -1 -1 -1 -1 -0 0 -0 -0 -0 -1 -0 0 -0 -0 -0 -0 0 0 -0 -1 -1 -1 -1 -2 -3 -2 -0 -2 -2 -2 -3 -3 -4 -4 -5 -6 -6 -6 -7 -8 -8
-2 -2 -2 -1 -1 -1 -2 -1 -1 -1 -1 -1 -2 -1 -1 0 0 0 -0 -0 -1 -1 -2 -2 -1 -2 -3 -4 0 -1 -3 -2 -3 -3 -4 -4 -5 -6 -6 -7 -8 -8 -8 -8
-2 -2 -2 -2 -2 -2 -2 -2 -2 -2 -2 -2 -2 -1 -1 -1 -0 -0 -1 -1 -1 -2 -2 -2 -2 -2 -3 -1 -1 -2 -2 -4 -4 -5 -5 -6 -6 -7 -7 -8 -8 -8 -9 -9
-3 -3 -3 -3 -2 -2 -2 -3 -3 -2 -2 -3 -2 -2 -2 -2 -2 -1 -2 -2 -2 -2 -2 -2 -3 -2 -1 -1 -2 -3 -4 -5 -5 -6 -6 -6 -7 -7 -8 -8 -9 -9 -9 -9
-4 -4 -4 -4 -3 -3 -4 -4 -4 -3 -3 -2 -2 -2 -2 -2 -2 -3 -3 -3 -3 -3 -3 -4 -4 -4 -3 -2 -3 -4 -5 -5 -6 -6 -7 -8 -8 -9 -9 -9 -9 -9 -10 -10
-4 -4 -4 -4 -4 -4 -4 -4 -4 -4 -4 -3 -3 -2 -2 -2 -3 -4 -4 -4 -4 -3 -5 -5 -5 -5 -4 -4 -4 -4 -5 -6 -6 -7 -8 -8 -9 -9 -9 -9 -9 -10 -10 -11
-4 -4 -4 -4 -4 -3 -4 -4 -3 -4 -3 -3 -3 -3 -4 -4 -4 -5 -4 -4 -5 -6 -6 -6 -6 -6 -5 -5 -5 -5 -6 -6 -7 -8 -8 -9 -9 -9 -9 -10 -10 -10 -11 -11
-5 -5 -5 -5 -5 -5 -5 -5 -5 -5 -4 -4 -4 -4 -4 -5 -4 -4 -5 -6 -7 -7 -7 -7 -7 -7 -7 -6 -6 -7 -7 -7 -8 -8 -9 -9 -10 -10 -10 -11 -11 -11 -11 -12
-6 -6 -6 -6 -6 -6 -6 -5 -5 -5 -5 -5 -5 -5 -5 -5 -5 -6 -7 -7 -7 -7 -7 -7 -8 -8 -8 -7 -8 -8 -8 -9 -9 -10 -10 -10 -10 -10 -11 -11 -11 -12 -12 -12
-7 -7 -7 -7 -7 -7 -7 -6 -6 -6 -6 -7 -6 -7 -7 -7 -7 -8 -8 -7 -8 -7 -8 -8 -9 -9 -9 -9 -9 -9 -10 -10 -10 -10 -10 -11 -11 -11 -11 -11 -12 -12 -13 -13
-8 -8 -8 -8 -8 -8 -8 -8 -8 -8 -8 -8 -8 -8 -8 -9 -9 -8 -8 -8 -9 -9 -9 -9 -9 -9 -9 -10 -10 -10 -10 -10 -10 -11 -11 -11 -11 -12 -12 -12 -13 -13 -13 -14
Height
3073 3077 3080 3084 3088 3093 3098 3103 3107 3109 3112 3117 3120 3123 3125 3124 3125 3127 3131 3133 3135 3137 3139 3140 3142 3143 3142 3143 3144 3146 3146 3149 3150 3152 3151 3150 3150 3151 3151 3151 3151 3149 3148 3145
3072 3076 3080 3084 3087 3092 3098 3104 3106 3107 3111 3116 3119 3120 3122 3125 3126 3129 3131 3132 3135 3136 3139 3141 3141 3140 3141 3142 3143 3144 3146 3149 3149 3150 3152 3150 3150 3151 3150 3149 3147 3147 3149 3145
3072 3076 3080 3084 3088 3093 3100 3104 3104 3107 3110 3113 3117 3120 3121 3123 3124 3126 3129 3132 3133 3136 3138 3139 3140 3139 3141 3142 3143 3144 3146 3147 3149 3151 3150 3150 3149 3148 3147 3146 3143 3142 3142 3141
3073 3076 3080 3084 3088 3093 3098 3101 3103 3105 3107 3112 3116 3119 3121 3123 3124 3126 3128 3131 3133 3136 3137 3139 3140 3140 3140 3141 3142 3143 3145 3146 3148 3147 3147 3146 3146 3144 3142 3141 3139 3138 3137 3136
3073 3076 3080 3084 3088 3092 3097 3100 3101 3105 3107 3111 3114 3117 3120 3123 3125 3125 3128 3130 3132 3135 3136 3138 3139 3140 3140 3141 3140 3141 3142 3143 3143 3143 3143 3142 3139 3136 3135 3136 3134 3132 3132 3133
3072 3076 3080 3083 3088 3092 3096 3098 3101 3103 3105 3108 3113 3115 3119 3122 3122 3124 3127 3129 3131 3133 3133 3133 3135 3136 3137 3139 3140 3140 3141 3141 3140 3139 3139 3136 3134 3134 3134 3132 3132 3131 3130 3130
3071 3076 3080 3083 3087 3090 3094 3097 3099 3101 3104 3107 3111 3114 3118 3120 3120 3122 3126 3127 3127 3129 3131 3132 3133 3134 3135 3137 3136 3137 3137 3138 3139 3137 3137 3136 3132 3130 3128 3127 3128 3126 3126 3126
3070 3074 3079 3082 3086 3089 3092 3095 3098 3100 3102 3106 3110 3112 3116 3116 3119 3121 3121 3122 3125 3127 3129 3130 3131 3132 3134 3133 3133 3134 3135 3135 3136 3136 3135 3132 3128 3126 3125 3124 3123 3123 3121 3116
3068 3073 3077 3081 3084 3088 3091 3094 3096 3099 3102 3104 3108 3111 3112 3114 3115 3117 3120 3122 3124 3125 3126 3128 3128 3129 3131 3132 3131 3131 3132 3132 3134 3132 3133 3130 3126 3126 3121 3120 3120 3116 3112 3112
3067 3071 3076 3079 3083 3087 3090 3092 3095 3097 3100 3103 3105 3109 3111 3113 3114 3115 3118 3120 3122 3123 3123 3125 3126 3127 3128 3128 3127 3128 3129 3128 3128 3129 3129 3124 3121 3120 3118 3119 3119 3111 3110 3107
3065 3070 3074 3078 3081 3085 3088 3091 3093 3096 3098 3101 3103 3105 3108 3110 3112 3113 3115 3118 3118 3119 3121 3122 3122 3122 3124 3124 3125 3124 3125 3125 3124 3124 3125 3121 3117 3115 3115 3114 3111 3105 3102 3098
3063 3068 3072 3076 3080 3083 3086 3089 3092 3094 3097 3100 3101 3104 3106 3107 3108 3110 3111 3114 3114 3115 3116 3117 3118 3119 3119 3119 3121 3123 3123 3120 3120 3119 3118 3116 3113 3105 3105 3104 3101 3098 3095 3092
3060 3065 3070 3074 3077 3081 3084 3087 3089 3092 3094 3097 3098 3100 3102 3104 3106 3107 3109 3109 3111 3111 3112 3113 3114 3116 3116 3116 3115 3117 3117 3117 3115 3114 3112 3112 3106 3101 3100 3097 3094 3092 3088 3083
3057 3062 3067 3071 3074 3078 3081 3084 3087 3090 3092 3093 3095 3096 3099 3100 3102 3103 3104 3106 3107 3107 3108 3108 3109 3111 3110 3108 3110 3110 3111 3110 3107 3105 3105 3105 3096 3095 3093 3089 3086 3083 3080 3077
3054 3059 3063 3068 3071 3074 3078 3081 3084 3086 3090 3089 3091 3092 3095 3096 3097 3099 3100 3101 3102 3102 3102 3102 3104 3104 3105 3102 3100 3100 3103 3101 3100 3096 3094 3093 3091 3088 3085 3083 3079 3076 3074 3071
3049 3054 3059 3063 3067 3071 3074 3077 3079 3082 3084 3086 3087 3088 3089 3091 3092 3094 3095 3094 3095 3096 3096 3097 3097 3098 3098 3094 3091 3094 3095 3095 3090 3090 3086 3084 3082 3079 3077 3075 3073 3069 3068 3065
3045 3049 3054 3059 3062 3066 3069 3072 3076 3077 3080 3081 3082 3081 3083 3086 3087 3088 3088 3089 3090 3091 3089 3087 3091 3092 3091 3085 3082 3088 3088 3084 3081 3081 3079 3076 3074 3071 3070 3068 3066 3063 3062 3059
3041 3045 3049 3053 3058 3061 3064 3067 3071 3073 3075 3076 3075 3074 3078 3080 3080 3082 3083 3083 3084 3082 3081 3079 3082 3083 3081 3075 3077 3077 3077 3074 3075 3073 3071 3068 3067 3066 3064 3062 3060 3058 3057 3053
3037 3041 3045 3049 3052 3056 3060 3063 3066 3068 3071 3068 3065 3068 3073 3073 3075 3077 3078 3077 3077 3075 3073 3074 3075 3071 3069 3070 3070 3068 3066 3068 3068 3066 3064 3062 3061 3059 3058 3056 3055 3053 3050 3046
3033 3038 3041 3042 3046 3053 3057 3058 3060 3059 3059 3058 3058 3062 3065 3068 3069 3071 3074 3071 3071 3066 3066 3066 3062 3057 3062 3062 3061 3060 3060 3061 3060 3059 3058 3057 3056 3054 3052 3051 3049 3046 3042 3037
3026 3030 3034 3038 3042 3048 3050 3052 3052 3052 3049 3047 3048 3053 3057 3060 3063 3066 3067 3063 3063 3061 3059 3060 3053 3047 3050 3054 3053 3053 3054 3054 3054 3053 3052 3051 3050 3049 3047 3045 3042 3038 3034 3030
3021 3026 3030 3035 3037 3039 3042 3041 3042 3040 3040 3038 3038 3044 3050 3052 3055 3059 3058 3058 3058 3053 3051 3052 3045 3046 3045 3046 3046 3047 3048 3048 3048 3048 3047 3047 3046 3044 3041 3038 3035 3031 3026 3022
3017 3020 3023 3025 3026 3027 3026 3026 3026 3028 3026 3027 3032 3038 3043 3045 3049 3051 3050 3048 3046 3044 3044 3042 3041 3041 3043 3043 3043 3043 3042 3043 3043 3043 3042 3042 3041 3038 3035 3031 3028 3023 3019 3014
3013 3014 3015 3017 3016 3016 3017 3018 3019 3021 3023 3027 3030 3033 3037 3038 3041 3040 3038 3038 3038 3038 3038 3037 3038 3039 3039 3040 3040 3039 3039 3040 3039 3039 3038 3036 3034 3031 3027 3023 3019 3015 3011 3007
3009 3010 3009 3010 3011 3013 3015 3016 3018 3019 3020 3023 3025 3027 3030 3030 3032 3030 3031 3032 3033 3033 3035 3034 3035 3036 3037 3038 3038 3037 3037 3036 3035 3033 3032 3029 3026 3022 3019 3015 3011 3007 3003 3000
3008 3008 3009 3009 3011 3013 3014 3014 3015 3016 3017 3019 3021 3022 3024 3026 3026 3027 3028 3029 3030 3031 3031 3032 3034 3035 3035 3035 3035 3034 3032 3031 3029 3026 3023 3020 3017 3014 3011 3007 3003 2999 2995 2992
3006 3007 3009 3010 3012 3013 3014 3015 3016 3017 3018 3018 3019 3021 3023 3025 3025 3026 3027 3028 3028 3029 3030 3030 3031 3032 3031 3030 3029 3028 3026 3024 3021 3019 3016 3013 3009 3006 3002 2999 2996 2991 2987 2983
Wind_Speed
17 17 16 16 19 20 19 17 9 11 20 19 17 9 9 8 8 15 13 7 6 7 7 6 5 8 6 5 7 3 3 4 1 3 3 4 3 2 3 3 6 8 11 18
16 18 17 17 19 21 21 18 8 11 21 12 16 10 10 7 8 8 6 6 7 9 8 5 7 8 7 6 6 7 6 2 2 7 0 5 4 4 7 8 11 9 8 9
16 18 19 18 19 21 23 9 7 18 24 9 15 10 9 11 15 14 8 6 7 9 8 5 8 5 7 6 5 4 3 2 1 2 6 9 10 12 14 15 16 17 21 22
16 17 19 20 21 26 22 10 6 18 25 12 11 13 9 10 16 10 9 6 6 8 7 6 6 6 5 6 6 4 3 2 3 6 9 11 12 16 17 20 20 23 23 21
17 16 18 20 21 22 20 9 7 16 6 14 11 14 11 12 9 8 11 7 9 9 7 5 8 6 3 2 5 3 5 4 8 13 5 10 23 20 9 9 13 15 12 15
19 17 17 19 19 19 19 15 12 15 14 15 14 14 10 13 14 13 9 10 13 13 13 14 16 14 12 7 2 3 6 4 7 5 11 23 4 4 11 15 12 10 14 12
20 19 17 17 17 17 16 16 13 12 13 12 12 10 12 13 11 9 9 12 18 20 12 9 10 11 10 7 9 9 9 8 7 8 10 2 4 17 7 7 7 10 11 13
21 19 18 17 16 15 13 13 14 12 14 12 14 12 12 18 16 14 18 18 16 11 10 9 7 7 7 7 11 8 8 6 5 3 4 15 5 6 11 12 16 10 8 11
22 20 18 17 15 14 13 12 13 12 12 15 12 11 18 16 18 18 13 15 13 12 12 10 7 5 4 5 3 6 6 8 8 7 2 4 5 10 13 13 13 11 16 18
22 20 18 17 16 14 13 12 12 13 13 13 16 15 15 11 11 12 13 13 13 13 12 12 9 8 7 6 8 6 6 8 11 9 7 10 12 14 15 8 8 19 21 30
22 21 19 18 16 15 14 13 13 12 12 10 17 18 20 18 14 15 13 14 16 16 13 10 11 10 12 11 7 8 7 6 5 4 6 8 5 9 17 16 21 32 31 33
24 21 19 18 17 17 16 15 14 13 13 8 12 15 16 18 20 15 15 12 13 11 10 12 9 11 11 14 8 7 10 13 8 9 10 14 19 21 22 31 34 33 37 33
25 23 21 19 18 17 17 15 15 14 13 13 13 15 16 16 17 18 17 17 15 16 18 16 14 14 12 15 17 16 16 16 20 19 24 18 23 34 34 35 37 37 36 31
28 25 23 21 20 19 18 17 16 16 14 16 14 13 17 16 18 19 20 19 19 21 19 20 20 22 19 22 21 19 21 20 24 27 24 21 31 31 33 33 30 34 27 27
30 28 26 24 22 20 19 19 18 17 18 10 15 19 17 17 17 19 19 21 21 21 22 23 23 25 25 29 29 32 29 30 24 25 25 28 28 32 31 31 33 27 26 23
31 29 28 26 25 23 22 22 22 20 20 20 21 19 18 15 17 21 22 22 23 25 25 25 24 25 23 20 27 32 25 18 28 31 29 28 28 30 29 27 26 24 22 23
30 30 29 27 27 25 25 25 22 23 21 21 21 23 24 22 21 23 25 24 24 25 26 30 27 26 26 32 39 33 29 31 36 30 28 26 24 30 22 23 21 20 21 25
29 28 26 26 26 26 25 24 23 20 21 22 17 16 17 19 22 23 26 27 27 29 30 33 31 29 28 29 37 33 28 32 25 24 26 27 24 21 21 18 19 22 26 32
30 28 27 27 27 27 23 23 24 25 25 24 29 28 23 24 24 21 21 23 25 27 30 32 29 32 31 34 34 31 33 27 27 25 23 21 23 20 18 19 22 26 31 37
29 26 27 28 30 25 24 24 25 29 31 33 35 32 28 24 21 20 19 22 19 19 24 22 28 38 34 33 31 32 30 25 22 21 23 23 20 19 20 21 25 32 36 36
31 31 32 30 28 22 24 20 20 23 30 37 40 39 35 30 28 23 18 15 10 13 21 19 18 29 29 23 22 19 22 24 20 21 22 19 18 19 21 26 32 36 36 36
36 36 33 29 27 17 20 19 18 22 23 31 26 25 29 31 30 26 22 23 13 13 15 10 12 19 19 12 12 13 15 16 18 18 17 16 17 22 29 33 35 34 35 34
27 39 35 25 18 16 13 21 26 29 28 22 22 23 24 24 21 17 14 12 13 15 9 9 13 12 12 12 10 11 14 15 15 15 16 19 23 29 33 33 33 34 35 34
20 21 15 13 8 12 14 20 24 29 28 28 26 20 14 25 20 18 10 11 8 7 6 5 7 8 8 10 10 11 13 12 14 19 22 26 30 33 31 32 34 35 34 32
12 7 6 10 10 10 14 17 19 19 19 18 16 20 25 21 15 10 9 6 5 6 3 7 1 7 10 7 7 12 16 19 20 24 28 32 32 31 32 34 34 33 32 31
4 5 3 3 6 8 9 10 10 11 13 16 19 16 6 6 5 6 5 4 4 4 5 12 9 5 9 14 16 17 18 21 26 30 31 30 32 33 33 33 32 31 31 31
4 7 8 12 12 13 11 10 10 12 10 9 6 4 4 3 2 4 3 1 8 12 13 14 14 15 17 17 17 20 24 27 28 28 29 31 32 33 34 33 30 30 32 34
Wind_Direction
173 175 175 177 179 180 181 178 167 207 190 187 187 190 228 201 207 180 179 155 183 174 173 163 152 154 192 173 132 142 119 100 117 92 355 24 345 344 323 306 295 294 294 269
170 173 173 171 171 173 172 159 233 209 187 179 189 208 213 164 178 180 180 182 165 164 167 152 152 198 162 174 166 168 137 70 310 163 217 2 13 309 303 285 269 271 262 267
167 172 173 170 165 166 157 150 194 187 183 173 201 201 198 186 170 197 170 182 172 164 175 158 170 203 186 211 196 171 151 139 134 285 303 312 309 302 295 284 271 271 267 285
167 169 174 174 168 165 159 153 202 192 196 179 184 203 200 192 200 206 195 193 178 176 165 160 164 178 194 229 230 228 219 170 262 272 289 301 302 300 293 288 282 276 284 285
170 169 173 178 177 177 175 173 183 181 189 190 182 197 194 199 190 210 195 189 185 183 185 162 191 198 175 228 239 211 262 260 286 310 306 299 308 301 293 305 306 280 293 297
176 173 171 177 182 184 189 186 192 193 189 183 184 210 190 194 203 192 183 180 171 175 169 184 182 191 190 190 230 203 251 271 302 277 292 317 10 359 307 299 299 292 294 302
185 183 178 180 183 191 209 206 210 210 199 186 189 200 193 194 206 189 159 168 191 200 210 210 223 233 236 235 246 224 260 273 280 286 315 316 286 300 342 323 288 285 292 292
191 191 190 190 192 197 200 205 211 213 215 203 193 199 186 191 189 160 183 188 208 203 212 225 232 247 250 237 238 252 239 276 267 265 260 289 5 355 290 303 314 313 256 246
196 196 197 198 198 202 203 206 209 211 207 198 193 181 198 194 178 203 210 210 217 213 217 222 209 196 169 181 209 220 216 258 248 255 246 260 270 312 298 314 281 253 256 267
200 199 202 203 204 206 206 208 210 213 213 211 172 196 196 193 217 223 221 220 221 230 231 227 225 217 202 205 209 241 254 259 248 235 258 269 287 285 287 291 270 271 279 293
206 207 207 208 208 211 212 211 212 216 217 211 210 207 187 197 207 229 235 225 233 239 234 235 235 226 221 224 218 259 269 261 247 215 240 268 248 273 276 279 278 290 297 298
206 208 209 209 211 213 215 214 215 216 217 221 221 228 230 232 228 216 238 226 236 223 230 232 235 228 224 232 220 247 239 265 263 250 277 298 305 306 290 294 293 294 301 298
211 211 213 213 213 215 218 218 219 221 222 224 222 221 226 228 228 240 244 244 246 245 242 253 246 237 245 245 262 255 248 257 257 274 279 279 269 276 284 295 296 295 303 318
217 217 218 218 218 218 220 222 224 225 230 232 236 234 233 235 235 241 247 253 252 256 261 260 255 254 270 268 266 250 261 272 281 281 277 272 271 275 286 300 290 305 312 314
218 220 221 223 224 224 225 225 226 226 224 235 239 241 239 240 243 246 249 253 256 257 257 256 258 262 262 263 263 269 281 283 279 285 276 285 279 287 298 293 300 309 314 311
218 220 222 224 227 229 229 229 229 231 236 240 247 252 245 244 246 251 252 250 253 258 262 263 263 263 263 263 267 284 283 265 266 273 284 288 289 294 297 299 306 308 308 313
217 220 224 227 228 230 230 230 234 233 239 243 251 258 253 252 251 250 253 258 262 266 264 264 266 265 261 264 271 284 280 276 280 287 287 283 292 292 292 300 300 301 310 313
217 217 219 223 226 227 231 235 238 240 241 244 240 243 244 253 251 255 258 260 261 261 261 265 269 270 264 264 283 289 286 287 286 283 290 292 295 290 301 301 295 300 307 314
221 223 225 227 226 227 231 235 237 241 241 242 244 247 255 256 257 257 257 259 261 263 261 265 267 265 257 277 280 283 284 287 288 288 293 288 290 302 295 292 295 303 311 317
218 222 226 234 232 232 233 237 242 244 244 245 247 249 244 249 254 258 255 259 255 256 263 263 259 265 274 279 280 278 279 285 285 292 278 283 291 292 290 294 303 310 315 317
214 220 223 223 237 232 236 240 237 240 246 252 253 249 250 251 250 250 245 249 252 258 266 243 258 268 280 284 280 271 271 274 276 271 280 288 290 291 297 307 312 313 313 315
215 223 229 225 227 214 221 223 227 238 243 244 245 248 250 250 249 243 252 249 252 252 253 221 256 271 283 274 264 260 259 262 267 277 286 284 290 302 308 309 310 310 313 314
223 218 215 212 202 208 194 209 222 224 227 238 249 247 243 241 235 229 228 221 226 233 223 230 254 255 264 274 265 262 263 275 282 284 286 295 301 303 306 307 309 311 312 312
224 219 211 207 203 202 210 212 223 229 240 250 249 245 232 229 221 218 216 215 208 203 220 222 238 263 276 276 280 280 283 283 282 289 292 296 301 305 306 309 311 311 312 312
230 201 213 218 219 227 225 228 235 241 240 236 224 216 211 213 209 203 201 189 207 201 197 172 211 311 292 283 296 292 292 289 288 291 296 302 307 309 310 311 311 311 311 310
228 221 230 213 207 206 208 226 230 215 202 194 195 195 185 187 192 183 185 181 176 161 228 310 324 289 297 301 302 296 284 285 294 301 305 308 309 310 311 312 311 311 311 312
175 162 174 170 164 167 160 147 162 161 162 170 155 136 154 132 166 183 175 210 293 312 310 297 297 299 305 303 297 291 293 298 303 306 308 307 308 309 310 310 312 313 319 317